This is the latest recevied weather packets stored in our database for station/object SP1BMW-13. If no packets are shown the sender has not sent any weather packets the latest 10 day(s).
| Time | Temp. | Humidity | Pressure | Rain* | Wind** | Luminosity | Snow |
|---|---|---|---|---|---|---|---|
| 1787992281 | 21.67° C | 62% | 1009.7 hPa | 0 mm | 1.34 m/s, 262° | 185 W/m² | - |
| 1787992221 | 21.67° C | 62% | 1009.5 hPa | 0 mm | 0.89 m/s, 275° | 296 W/m² | - |
| 1787992161 | 21.67° C | 62% | 1009.6 hPa | 0 mm | 1.79 m/s, 261° | 473 W/m² | - |
| 1787992101 | 21.67° C | 62% | 1009.7 hPa | 0 mm | 2.24 m/s, 286° | 446 W/m² | - |
| 1787992041 | 21.67° C | 62% | 1009.6 hPa | 0 mm | 1.79 m/s, 254° | 455 W/m² | - |
| 1787991982 | 21.67° C | 63% | 1009.7 hPa | 0 mm | 0.89 m/s, 273° | 169 W/m² | - |
| 1787991922 | 21.67° C | 63% | 1009.6 hPa | 0 mm | 0.89 m/s, 121° | 470 W/m² | - |
| 1787991862 | 21.67° C | 63% | 1009.6 hPa | 0 mm | 1.79 m/s, 275° | 442 W/m² | - |
| 1787991801 | 21.67° C | 62% | 1009.6 hPa | 0 mm | 1.34 m/s, 220° | 423 W/m² | - |
| 1787991741 | 21.67° C | 62% | 1009.8 hPa | 0 mm | 1.34 m/s, 333° | 405 W/m² | - |
| 1787991682 | 21.67° C | 63% | 1009.6 hPa | 0 mm | 1.79 m/s, 229° | 419 W/m² | - |
| 1787991621 | 21.67° C | 63% | 1009.7 hPa | 0 mm | 0.89 m/s, 261° | 411 W/m² | - |
| 1787991561 | 21.67° C | 65% | 1009.6 hPa | 0 mm | 0.45 m/s, 41° | 411 W/m² | - |
| 1787991502 | 21.67° C | 65% | 1009.8 hPa | 0 mm | 0.89 m/s, 163° | 409 W/m² | - |
| 1787991442 | 21.67° C | 64% | 1009.6 hPa | 0 mm | 0.89 m/s, 148° | 407 W/m² | - |
| 1787991382 | 21.67° C | 64% | 1009.7 hPa | 0 mm | 0.45 m/s, 137° | 410 W/m² | - |
| 1787991321 | 21.67° C | 63% | 1009.7 hPa | 0 mm | 2.68 m/s, 117° | 90 W/m² | - |
| 1787991261 | 21.67° C | 64% | 1009.6 hPa | 0 mm | 0.89 m/s, 162° | 92 W/m² | - |
| 1787991201 | 21.67° C | 64% | 1009.8 hPa | 0 mm | 0.45 m/s, 147° | 97 W/m² | - |
| 1787991141 | 21.11° C | 64% | 1009.6 hPa | 0 mm | 0.45 m/s, 221° | 407 W/m² | - |
| 1787991081 | 21.11° C | 65% | 1009.6 hPa | 0 mm | 0.89 m/s, 185° | 401 W/m² | - |
| 1787991022 | 21.11° C | 66% | 1009.7 hPa | 0 mm | 0 m/s | 402 W/m² | - |
| 1787990961 | 21.11° C | 65% | 1009.6 hPa | 0 mm | 2.24 m/s, 246° | 409 W/m² | - |
| 1787990901 | 21.11° C | 65% | 1009.4 hPa | 0 mm | 1.34 m/s, 243° | 405 W/m² | - |
| 1787990842 | 21.11° C | 64% | 1009.5 hPa | 0 mm | 1.79 m/s, 306° | 398 W/m² | - |
* Rain latest hour (hover to see other rain measurements)
** Current wind speed in m/s (hover to see current wind gust speed)